Wind_Speed
22 21 19 20 21 26 31 31 31 32 32 32 29 29 25 24 25 24 23 22 21 19 18 16 16 15 14 12 10 6 3 13 12 13 10 7 9 11 10 9 9 10 13 14 13
20 19 17 17 17 20 27 28 29 32 31 32 30 30 26 24 24 24 23 24 19 20 22 17 15 14 15 13 11 9 6 5 6 4 6 9 13 14 15 13 12 10 12 14 13
20 21 20 19 18 18 23 24 29 31 32 32 32 29 26 23 23 23 23 26 19 22 20 20 16 16 15 14 11 8 7 7 6 9 10 13 16 18 18 16 13 12 12 12 14
20 18 21 19 18 18 20 22 29 30 32 32 33 29 25 23 20 22 22 24 19 23 17 16 17 18 15 13 10 8 8 8 9 10 13 16 18 20 19 16 15 15 13 13 14
14 18 19 16 17 18 18 25 29 31 33 33 32 29 25 23 17 23 20 19 22 15 26 14 16 15 15 13 11 9 9 10 11 13 17 20 20 18 17 17 18 18 16 14 15
15 16 16 15 18 16 21 26 30 33 34 35 31 28 25 23 15 20 18 17 20 18 19 18 15 13 13 12 11 9 9 11 14 17 19 19 18 17 14 17 20 19 17 15 17
15 15 15 16 16 17 21 27 31 34 35 34 29 26 24 22 14 19 20 17 15 16 17 15 10 11 11 11 11 11 12 15 17 18 17 16 17 13 13 17 19 17 17 16 18
12 16 16 14 15 19 25 30 33 35 35 31 27 25 24 19 16 17 18 16 16 14 14 13 13 12 11 12 11 12 14 17 15 11 16 16 19 14 17 17 16 17 17 17 18
10 13 14 16 20 24 29 31 34 34 31 28 25 25 22 19 17 15 17 16 15 15 14 14 13 13 13 14 14 15 15 13 13 13 14 16 21 19 21 21 21 20 19 19 19
14 17 20 23 26 28 31 33 34 31 29 26 24 21 19 17 18 15 16 15 15 14 15 15 14 16 17 16 16 14 17 11 12 15 20 21 24 20 21 24 24 24 21 21 21
19 22 25 28 30 32 34 34 31 28 27 23 23 14 17 16 16 14 13 13 13 14 14 15 16 14 14 15 13 13 14 17 18 22 23 23 23 20 20 28 30 28 23 22 21
22 25 28 32 34 33 33 32 32 29 23 16 22 11 12 14 14 13 12 12 12 11 12 13 12 12 13 11 10 11 15 20 23 22 21 19 27 25 26 33 24 23 21 20 21
24 29 33 33 32 30 30 29 29 22 17 16 20 12 10 13 14 14 13 13 11 12 12 12 9 11 11 11 12 16 19 21 22 20 21 25 31 23 12 14 21 18 18 19 19
28 33 35 33 28 28 27 27 26 19 10 11 12 11 9 9 8 11 12 12 12 12 13 9 13 13 13 14 16 18 19 18 17 15 13 15 9 27 22 14 8 7 11 15 16
29 32 33 30 30 28 27 26 21 14 4 9 11 12 12 10 7 9 11 11 11 11 11 8 9 10 11 13 13 16 14 14 15 17 18 21 9 14 13 4 2 3 6 12 11
26 29 30 25 21 21 22 23 18 3 3 9 11 10 13 13 9 6 7 10 10 11 12 13 13 13 12 14 14 13 13 14 17 13 5 5 8 4 2 4 6 5 8 8 7
25 25 25 23 17 16 17 19 7 1 7 7 7 11 10 9 8 7 9 9 9 7 10 12 16 16 11 11 12 14 12 4 2 1 6 3 6 10 10 13 10 7 2 3 3
23 23 23 17 15 15 16 16 2 5 6 6 8 10 9 6 5 3 6 10 9 9 7 6 6 12 9 7 5 6 8 5 5 3 4 4 6 5 8 6 6 5 5 5 9
20 18 20 17 16 14 17 6 3 6 6 6 9 8 7 6 4 4 6 7 6 8 6 6 7 9 10 8 6 6 8 8 5 7 3 5 6 5 1 3 6 4 6 8 9
16 17 18 16 13 13 16 3 5 6 5 7 4 5 5 7 6 5 6 5 5 9 12 7 6 10 10 11 12 14 7 4 6 2 4 5 4 4 3 8 5 6 12 13 14
17 17 16 15 14 13 13 8 5 4 4 5 6 7 7 8 7 7 5 6 7 8 7 10 11 5 7 6 6 9 15 10 6 5 5 2 2 4 3 2 7 11 15 19 22
17 15 17 17 15 15 16 14 9 6 7 8 8 11 11 11 10 12 10 10 5 5 6 8 7 6 8 8 8 8 7 9 6 4 5 3 7 10 7 7 12 24 27 25 20
17 16 15 16 14 14 14 11 10 12 12 10 9 12 14 13 8 12 12 11 12 10 5 6 5 3 2 6 10 9 9 13 16 17 17 5 8 11 15 14 26 29 26 22 21
14 11 14 16 15 13 12 10 10 10 8 8 9 9 9 11 14 5 8 6 5 5 6 6 8 9 6 3 5 10 13 13 15 13 18 23 22 18 21 28 27 22 21 22 26
13 9 12 15 16 11 9 5 4 5 6 5 7 8 7 7 9 10 9 7 6 6 6 6 8 10 11 12 15 18 19 19 22 24 21 25 26 20 15 18 18 21 22 25 24
12 10 10 9 15 12 11 9 6 4 4 4 4 5 6 6 5 2 4 4 6 6 6 8 9 11 14 15 17 17 15 18 19 18 20 13 8 14 14 19 22 24 27 28 30
10 10 12 11 12 11 10 8 4 5 5 5 5 5 5 7 7 7 7 8 8 10 11 12 11 8 7 10 11 13 7 8 9 11 11 13 15 16 21 24 24 25 29 32 38
Wind_Direction
269 257 251 252 245 238 234 229 215 213 203 202 199 198 194 193 193 194 197 195 190 189 187 189 188 187 186 192 204 209 180 178 197 208 242 269 294 300 298 293 293 287 277 280 272
264 249 248 250 248 239 234 227 210 208 199 198 194 193 193 191 192 192 197 193 190 186 188 183 185 187 191 191 195 202 209 184 199 219 292 300 298 296 295 296 294 282 284 279 270
256 243 243 249 246 240 231 220 203 201 194 193 189 188 191 188 190 190 200 201 191 188 173 191 178 192 193 192 196 201 220 234 257 284 292 292 292 294 293 290 288 280 277 272 265
240 236 237 241 244 233 227 207 197 191 187 187 183 184 188 185 185 190 201 203 192 200 182 181 175 193 190 192 199 209 227 245 268 275 284 284 284 285 284 286 284 281 276 265 259
225 229 234 236 232 222 211 193 190 181 181 181 180 180 185 181 184 187 199 209 200 184 188 190 176 189 196 200 208 220 244 262 270 274 278 280 279 278 281 287 286 283 279 269 262
218 223 223 230 221 209 194 185 179 172 174 175 176 177 181 177 180 183 191 202 203 183 178 192 183 204 211 221 223 232 249 261 270 277 279 277 273 272 282 286 287 283 278 271 266
221 222 223 222 211 192 181 174 169 166 169 170 173 174 176 173 171 179 185 194 198 195 196 188 194 205 210 222 237 245 254 263 273 278 271 272 269 285 279 300 286 276 280 278 276
216 213 207 199 183 168 162 166 160 161 164 166 167 171 178 178 175 175 180 186 193 191 200 201 201 204 217 229 238 248 260 273 282 288 279 269 274 284 297 306 303 288 284 284 282
172 172 169 162 153 152 155 156 153 156 157 160 163 173 177 173 172 167 175 179 184 191 202 206 211 219 226 234 243 250 259 271 289 286 293 281 286 294 297 303 302 298 286 285 288
135 139 140 140 139 145 148 144 148 150 155 156 165 170 178 171 171 163 170 181 190 198 208 215 219 228 234 238 240 252 248 257 283 299 295 288 290 296 299 301 301 295 291 290 293
124 129 132 133 138 140 139 144 145 149 154 153 166 173 177 168 171 178 175 181 192 201 208 215 223 235 242 240 240 246 256 272 282 293 292 289 286 288 295 293 294 295 292 293 299
124 129 133 134 133 135 142 144 145 148 153 154 172 166 165 171 178 186 188 196 201 207 216 222 227 225 224 226 244 259 267 273 282 289 286 287 286 289 286 289 291 280 277 284 291
131 132 131 131 136 141 143 143 145 145 154 167 175 156 165 172 184 193 197 205 209 215 221 221 215 214 218 234 253 263 272 280 286 288 287 291 291 298 292 268 285 275 264 273 291
138 139 138 137 135 139 143 145 147 145 151 171 187 193 183 181 187 196 204 209 208 209 219 232 234 237 242 252 263 274 280 282 283 285 281 280 291 292 295 292 284 255 264 277 292
143 143 141 135 143 151 150 150 145 141 118 187 190 191 191 185 193 196 203 208 215 219 213 229 245 248 255 263 272 278 280 273 278 285 287 283 245 293 300 306 360 300 292 285 281
146 149 148 139 146 148 147 147 150 155 196 169 187 190 190 195 202 195 195 210 221 228 230 237 250 257 265 273 269 259 268 277 279 276 283 281 218 285 334 321 334 313 300 273 272
150 153 155 152 145 148 154 163 165 206 151 175 191 188 178 183 193 210 222 224 219 221 234 244 245 253 255 269 265 255 266 286 300 247 227 318 224 255 269 290 294 305 247 260 301
151 154 157 158 155 161 163 166 189 166 165 142 145 162 178 192 194 219 231 226 224 226 230 231 248 234 246 248 260 251 227 219 240 220 277 277 248 261 285 279 306 294 278 301 311
153 158 167 167 171 175 168 176 144 161 155 155 140 162 170 200 225 227 236 231 233 228 229 222 240 241 234 248 251 232 229 240 268 278 274 247 260 282 329 349 345 292 289 314 311
156 163 172 177 180 184 180 163 124 127 132 156 160 175 199 197 218 216 226 230 243 239 236 238 253 243 237 252 253 233 225 213 220 250 263 266 248 187 311 332 313 327 329 326 317
161 166 177 186 194 199 195 201 193 208 208 214 220 210 216 201 207 208 233 246 241 262 244 234 237 250 227 233 246 229 229 235 239 237 190 283 263 263 326 318 331 332 326 321 317
175 180 185 193 194 199 206 218 226 241 248 245 232 228 226 222 220 230 234 236 241 261 258 232 243 247 246 246 239 233 244 235 227 223 233 253 273 276 272 277 313 319 319 318 316
184 190 192 197 198 201 207 228 253 261 267 267 244 236 233 228 223 232 243 253 260 259 238 221 225 243 265 247 242 248 251 252 255 262 258 240 263 244 261 290 310 313 316 318 320
191 204 204 204 206 213 219 242 260 268 261 252 237 235 233 229 231 251 241 250 249 239 234 242 242 242 253 256 250 261 272 271 260 258 263 261 279 279 291 296 301 307 311 311 310
188 191 182 199 192 199 206 224 270 241 230 225 221 220 221 219 224 234 245 256 259 258 250 247 263 264 269 271 272 276 278 275 266 269 267 283 290 305 298 301 301 304 306 306 303
187 183 174 177 196 214 231 251 241 213 201 212 207 207 219 227 234 227 233 258 263 258 259 261 267 272 277 275 275 275 275 278 282 279 272 277 284 290 282 291 294 296 301 302 301
191 190 190 188 197 207 215 221 206 217 228 216 206 224 223 223 235 247 254 258 259 267 269 269 269 279 272 276 284 278 244 267 290 276 273 275 284 280 287 296 302 303 299 299 303
Height
3099 3099 3101 3103 3105 3107 3110 3115 3122 3128 3134 3141 3146 3153 3156 3160 3163 3167 3172 3176 3177 3180 3184 3186 3188 3190 3191 3193 3193 3193 3195 3195 3196 3196 3196 3196 3196 3196 3196 3196 3195 3193 3191 3191 3190
3094 3094 3096 3098 3100 3103 3106 3110 3118 3124 3130 3137 3143 3150 3155 3157 3161 3165 3170 3172 3176 3178 3182 3184 3187 3189 3190 3191 3192 3193 3194 3195 3195 3195 3195 3194 3194 3194 3194 3193 3192 3191 3189 3188 3188
3089 3091 3093 3095 3097 3100 3102 3107 3114 3120 3128 3135 3141 3148 3153 3156 3160 3164 3167 3170 3174 3175 3178 3183 3184 3187 3188 3189 3191 3192 3193 3194 3194 3193 3193 3193 3192 3191 3190 3190 3189 3189 3188 3186 3186
3085 3088 3090 3093 3095 3096 3100 3104 3110 3117 3125 3133 3139 3146 3151 3155 3161 3162 3165 3169 3172 3175 3178 3181 3182 3186 3186 3188 3189 3191 3191 3192 3192 3192 3191 3190 3189 3187 3186 3186 3185 3185 3185 3184 3183
3081 3084 3087 3089 3092 3094 3097 3102 3108 3115 3123 3131 3138 3144 3150 3154 3158 3160 3164 3167 3171 3174 3178 3180 3181 3183 3184 3186 3188 3189 3190 3190 3190 3189 3188 3187 3186 3184 3183 3182 3181 3180 3181 3181 3180
3079 3081 3084 3087 3089 3091 3095 3100 3107 3114 3122 3130 3137 3142 3149 3154 3157 3159 3163 3166 3170 3173 3176 3179 3180 3182 3183 3185 3186 3187 3188 3188 3187 3186 3185 3183 3182 3181 3182 3180 3178 3177 3177 3177 3176
3077 3080 3083 3085 3088 3089 3094 3101 3107 3114 3123 3130 3137 3142 3149 3153 3155 3158 3161 3165 3168 3171 3174 3176 3178 3180 3182 3183 3183 3184 3185 3184 3184 3183 3181 3180 3178 3178 3178 3177 3175 3173 3173 3173 3173
3076 3079 3082 3084 3086 3089 3095 3102 3108 3115 3124 3130 3137 3143 3147 3151 3154 3157 3161 3164 3168 3170 3172 3174 3176 3178 3180 3181 3181 3181 3181 3180 3180 3179 3177 3178 3174 3175 3174 3173 3172 3171 3170 3169 3169
3076 3078 3080 3083 3086 3091 3098 3104 3110 3119 3126 3132 3137 3142 3147 3149 3153 3156 3160 3163 3166 3169 3171 3173 3174 3176 3177 3178 3178 3177 3177 3176 3176 3175 3174 3174 3170 3171 3170 3168 3167 3167 3166 3166 3165
3078 3079 3082 3085 3089 3096 3102 3107 3116 3122 3128 3133 3138 3146 3148 3150 3152 3155 3158 3162 3164 3167 3169 3171 3172 3173 3173 3174 3174 3174 3173 3173 3173 3173 3169 3168 3166 3166 3165 3163 3162 3161 3161 3161 3161
3082 3084 3086 3090 3095 3101 3106 3113 3122 3127 3131 3134 3140 3143 3146 3149 3152 3154 3157 3160 3162 3164 3166 3167 3169 3169 3170 3171 3171 3171 3171 3170 3170 3168 3165 3162 3161 3162 3161 3157 3156 3156 3156 3156 3156
3088 3090 3092 3096 3101 3106 3112 3116 3122 3129 3133 3136 3140 3143 3145 3147 3151 3153 3156 3159 3160 3162 3163 3166 3166 3167 3167 3168 3168 3168 3167 3167 3166 3165 3162 3159 3156 3157 3156 3152 3152 3151 3151 3152 3151
3094 3096 3099 3103 3107 3112 3115 3121 3125 3130 3134 3138 3140 3143 3145 3148 3150 3152 3155 3156 3158 3159 3160 3162 3164 3164 3165 3165 3166 3165 3164 3163 3163 3161 3159 3156 3150 3150 3148 3148 3147 3145 3147 3148 3148
3099 3101 3104 3108 3114 3116 3120 3125 3128 3132 3136 3140 3141 3143 3145 3146 3149 3150 3152 3155 3156 3157 3158 3160 3160 3161 3162 3163 3163 3162 3161 3160 3159 3159 3157 3154 3149 3145 3144 3143 3142 3142 3143 3144 3145
3103 3106 3108 3112 3116 3120 3124 3126 3130 3134 3137 3142 3141 3142 3143 3146 3148 3148 3150 3152 3153 3155 3158 3158 3157 3158 3159 3160 3159 3159 3158 3157 3156 3154 3153 3149 3150 3140 3140 3140 3140 3141 3141 3142 3142
3107 3110 3113 3117 3121 3123 3125 3128 3132 3137 3136 3138 3138 3140 3142 3144 3146 3147 3148 3150 3151 3152 3154 3155 3155 3155 3156 3156 3155 3156 3155 3155 3153 3151 3151 3145 3145 3139 3138 3139 3139 3139 3140 3140 3141
3111 3115 3118 3120 3123 3124 3127 3131 3135 3134 3137 3138 3137 3138 3141 3143 3144 3145 3146 3148 3149 3150 3151 3151 3151 3151 3152 3152 3152 3152 3153 3152 3152 3151 3147 3143 3142 3137 3136 3137 3138 3139 3139 3139 3140
3115 3117 3121 3122 3124 3127 3129 3134 3134 3134 3135 3135 3136 3138 3140 3141 3143 3144 3144 3145 3146 3147 3148 3148 3148 3148 3149 3149 3149 3149 3151 3151 3150 3150 3144 3142 3138 3135 3135 3136 3137 3138 3138 3139 3139
3116 3119 3121 3123 3126 3128 3132 3133 3133 3134 3135 3136 3137 3139 3140 3141 3143 3143 3142 3143 3144 3145 3147 3146 3146 3146 3147 3147 3149 3148 3148 3149 3148 3146 3145 3139 3137 3136 3135 3135 3136 3136 3137 3136 3136
3118 3120 3123 3125 3127 3129 3132 3132 3133 3134 3135 3136 3137 3138 3139 3140 3142 3142 3142 3142 3142 3143 3144 3144 3145 3143 3144 3145 3146 3145 3147 3147 3147 3146 3144 3136 3135 3133 3133 3133 3132 3133 3133 3133 3133
3118 3121 3123 3126 3128 3130 3132 3133 3133 3134 3135 3136 3136 3137 3138 3138 3140 3140 3141 3141 3140 3141 3141 3142 3143 3143 3142 3142 3142 3143 3143 3144 3144 3142 3141 3140 3133 3132 3132 3131 3131 3130 3130 3129 3128
3118 3120 3122 3124 3128 3128 3129 3130 3132 3133 3134 3134 3135 3135 3136 3137 3137 3138 3138 3139 3139 3139 3139 3140 3140 3140 3141 3140 3140 3140 3141 3141 3141 3140 3138 3136 3133 3130 3129 3129 3128 3127 3126 3124 3123
3117 3119 3121 3123 3125 3126 3127 3129 3129 3130 3130 3131 3131 3132 3133 3134 3136 3135 3135 3136 3137 3137 3137 3138 3138 3138 3138 3140 3138 3137 3138 3138 3138 3137 3134 3135 3131 3128 3127 3125 3124 3123 3120 3119 3117
3117 3118 3119 3120 3122 3124 3126 3127 3127 3127 3127 3127 3128 3130 3131 3132 3133 3133 3134 3135 3135 3135 3136 3136 3136 3136 3136 3136 3136 3136 3135 3134 3133 3132 3128 3127 3127 3128 3126 3122 3120 3117 3116 3115 3113
3114 3116 3116 3117 3120 3122 3124 3125 3124 3124 3125 3125 3126 3128 3129 3130 3130 3131 3132 3133 3133 3134 3134 3135 3134 3133 3133 3133 3132 3131 3130 3130 3128 3127 3125 3124 3122 3122 3119 3117 3114 3112 3110 3108 3105
3113 3113 3115 3116 3118 3120 3121 3122 3123 3123 3124 3124 3125 3126 3127 3129 3130 3130 3130 3131 3131 3132 3132 3132 3130 3130 3129 3128 3127 3125 3125 3123 3121 3120 3119 3119 3119 3117 3114 3113 3111 3109 3106 3102 3099
3111 3112 3114 3115 3116 3118 3119 3121 3121 3122 3123 3123 3124 3125 3126 3127 3127 3128 3128 3128 3129 3129 3129 3129 3128 3127 3125 3124 3123 3122 3119 3119 3118 3116 3116 3115 3115 3113 3110 3109 3107 3104 3100 3096 3091